• In United Kingdom
  • List of Countries
  • For 7 days
  • Water Temperature
  • Satellite Maps
  • Weather Map
  • Weather Widgets
  • user-avatar
    Login

    Hourly Weather Ischgl

    Today, 21 July, Saturday

    Time Temperature Precipitation Wind Pressure Humidity
    00:00 +8°C° 0.7 mm 1 mps 576 mmHg 92%
    01:00 +7°C° 0 mm 1 mps 575 mmHg 92%
    02:00 +7°C° 1.1 mm 1 mps 575 mmHg 93%
    03:00 +7°C° 1.1 mm 1 mps 575 mmHg 93%
    04:00 +7°C° 1.1 mm 1 mps 575 mmHg 94%
    05:00 +7°C° 0.8 mm 1 mps 575 mmHg 94%
    06:00 +7°C° 0.8 mm 1 mps 575 mmHg 94%
    07:00 +7°C° 0 mm 1 mps 575 mmHg 93%
    08:00 +8°C° 0.4 mm 1 mps 575 mmHg 88%
    09:00 +9°C° 0.4 mm 1 mps 576 mmHg 83%
    10:00 +10°C° 0.4 mm 1 mps 576 mmHg 78%
    11:00 +11°C° 0.8 mm 1 mps 576 mmHg 76%
    12:00 +11°C° 0.8 mm 1 mps 576 mmHg 75%
    13:00 +12°C° 0.8 mm 1 mps 577 mmHg 73%
    14:00 +11°C° 1.3 mm 1 mps 576 mmHg 76%
    15:00 +11°C° 1.3 mm 1 mps 576 mmHg 79%
    16:00 +10°C° 1.3 mm 1 mps 576 mmHg 81%
    17:00 +10°C° 1 mm 1 mps 575 mmHg 85%
    18:00 +9°C° 1 mm 1 mps 575 mmHg 88%
    19:00 +9°C° 1 mm 1 mps 575 mmHg 91%
    20:00 +8°C° 0.4 mm 1 mps 575 mmHg 93%
    21:00 +7°C° 0.4 mm 1 mps 575 mmHg 94%
    22:00 +7°C° 0.4 mm 1 mps 575 mmHg 96%
    23:00 +6°C° 0.3 mm 1 mps 575 mmHg 96%

    Tomorrow, 22 July, Sunday

    Time Temperature Precipitation Wind Pressure Humidity
    00:00 +6°C° 0.3 mm 1 mps 574 mmHg 96%
    01:00 +6°C° 0.3 mm 1 mps 574 mmHg 96%
    02:00 +6°C° 0.2 mm 1 mps 574 mmHg 96%
    03:00 +6°C° 0.2 mm 1 mps 574 mmHg 96%
    04:00 +6°C° 0.2 mm 1 mps 574 mmHg 96%
    05:00 +6°C° 0.2 mm 1 mps 574 mmHg 95%
    06:00 +7°C° 0.2 mm 1 mps 574 mmHg 93%
    07:00 +7°C° 0.2 mm 1 mps 575 mmHg 92%
    08:00 +7°C° 0.2 mm 2 mps 575 mmHg 88%
    09:00 +8°C° 0.2 mm 2 mps 576 mmHg 84%
    10:00 +9°C° 0.2 mm 2 mps 576 mmHg 80%
    11:00 +10°C° 0.4 mm 2 mps 576 mmHg 78%
    12:00 +10°C° 0.4 mm 2 mps 576 mmHg 75%
    13:00 +12°C° 0.4 mm 2 mps 577 mmHg 73%
    14:00 +12°C° 0.8 mm 2 mps 577 mmHg 74%
    15:00 +12°C° 0.8 mm 2 mps 576 mmHg 76%
    16:00 +12°C° 0.8 mm 2 mps 576 mmHg 78%
    17:00 +10°C° 0.9 mm 2 mps 576 mmHg 82%
    18:00 +10°C° 0.9 mm 2 mps 576 mmHg 86%
    19:00 +9°C° 0.9 mm 2 mps 575 mmHg 90%
    20:00 +8°C° 0.4 mm 2 mps 575 mmHg 92%
    21:00 +7°C° 0.4 mm 2 mps 575 mmHg 94%
    22:00 +6°C° 0.4 mm 2 mps 575 mmHg 96%
    23:00 +6°C° 0.1 mm 2 mps 575 mmHg 96%

    Day after tomorrow, 23 July, Monday

    Time Temperature Precipitation Wind Pressure Humidity
    00:00 +7°C° 0.1 mm 1 mps 575 mmHg 96%
    01:00 +7°C° 0.1 mm 1 mps 575 mmHg 97%
    02:00 +6°C° 0.1 mm 2 mps 575 mmHg 97%
    03:00 +6°C° 0.1 mm 2 mps 575 mmHg 97%
    04:00 +6°C° 0.1 mm 2 mps 575 mmHg 97%
    05:00 +6°C° 0.1 mm 2 mps 575 mmHg 96%
    06:00 +7°C° 0.1 mm 2 mps 575 mmHg 95%
    07:00 +7°C° 0.1 mm 2 mps 576 mmHg 94%
    08:00 +8°C° 0.1 mm 2 mps 576 mmHg 90%
    09:00 +9°C° 0.1 mm 2 mps 577 mmHg 85%
    10:00 +10°C° 0.1 mm 3 mps 577 mmHg 80%
    11:00 +11°C° 0.1 mm 3 mps 578 mmHg 76%
    12:00 +12°C° 0.1 mm 2 mps 578 mmHg 72%
    13:00 +13°C° 0.1 mm 2 mps 579 mmHg 67%
    14:00 +14°C° 0.1 mm 2 mps 579 mmHg 67%
    15:00 +13°C° 0.1 mm 3 mps 579 mmHg 67%
    16:00 +13°C° 0.1 mm 3 mps 579 mmHg 67%
    17:00 +13°C° 0.1 mm 2 mps 578 mmHg 72%
    18:00 +12°C° 0.1 mm 2 mps 578 mmHg 77%
    19:00 +12°C° 0.1 mm 2 mps 578 mmHg 82%
    20:00 +9°C° 0 mm 2 mps 578 mmHg 86%
    21:00 +8°C° 0 mm 2 mps 577 mmHg 90%
    22:00 +7°C° 0 mm 1 mps 577 mmHg 95%
    23:00 +7°C° 0 mm 1 mps 576 mmHg 95%

    24 July, Tuesday

    Time Temperature Precipitation Wind Pressure Humidity
    00:00 +6°C° 0 mm 1 mps 576 mmHg 94%
    01:00 +6°C° 0 mm 1 mps 576 mmHg 94%
    02:00 +5°C° 0 mm 1 mps 575 mmHg 92%
    03:00 +5°C° 0 mm 1 mps 575 mmHg 90%
    04:00 +5°C° 0 mm 1 mps 575 mmHg 88%
    05:00 +7°C° 0 mm 1 mps 576 mmHg 83%
    06:00 +9°C° 0 mm 1 mps 577 mmHg 77%
    07:00 +11°C° 0 mm 1 mps 578 mmHg 71%
    08:00 +13°C° 0 mm 1 mps 578 mmHg 63%
    09:00 +15°C° 0 mm 1 mps 579 mmHg 56%
    10:00 +18°C° 0 mm 1 mps 580 mmHg 48%
    11:00 +18°C° 0 mm 1 mps 580 mmHg 47%
    12:00 +19°C° 0 mm 1 mps 580 mmHg 45%
    13:00 +19°C° 0 mm 2 mps 580 mmHg 44%
    14:00 +18°C° 0.2 mm 2 mps 580 mmHg 47%
    15:00 +18°C° 0.2 mm 2 mps 580 mmHg 50%
    16:00 +18°C° 0.2 mm 2 mps 579 mmHg 53%
    17:00 +16°C° 0.6 mm 2 mps 579 mmHg 63%
    18:00 +15°C° 0.6 mm 2 mps 578 mmHg 72%
    19:00 +14°C° 0.6 mm 2 mps 578 mmHg 82%
    20:00 +12°C° 0.4 mm 1 mps 577 mmHg 86%
    21:00 +10°C° 0.4 mm 1 mps 577 mmHg 91%
    22:00 +9°C° 0.4 mm 1 mps 576 mmHg 95%
    23:00 +9°C° 0.1 mm 1 mps 576 mmHg 96%

    25 July, Wednesday

    Time Temperature Precipitation Wind Pressure Humidity
    00:00 +9°C° 0.1 mm 1 mps 576 mmHg 96%
    01:00 +9°C° 0.1 mm 1 mps 576 mmHg 96%
    02:00 +8°C° 0 mm 1 mps 576 mmHg 96%
    03:00 +8°C° 0 mm 1 mps 576 mmHg 95%
    04:00 +8°C° 0 mm 1 mps 576 mmHg 95%
    05:00 +9°C° 0 mm 1 mps 576 mmHg 91%
    06:00 +10°C° 0 mm 1 mps 577 mmHg 87%
    07:00 +11°C° 0 mm 1 mps 578 mmHg 84%
    08:00 +12°C° 0 mm 1 mps 578 mmHg 75%
    09:00 +14°C° 0 mm 2 mps 579 mmHg 65%
    10:00 +16°C° 0 mm 2 mps 580 mmHg 56%
    11:00 +17°C° 0.1 mm 2 mps 580 mmHg 55%
    12:00 +17°C° 0.1 mm 2 mps 580 mmHg 54%
    13:00 +18°C° 0.1 mm 2 mps 580 mmHg 53%
    14:00 +17°C° 0.6 mm 2 mps 580 mmHg 57%
    15:00 +16°C° 0.6 mm 2 mps 579 mmHg 62%
    16:00 +16°C° 0.6 mm 2 mps 579 mmHg 67%
    17:00 +15°C° 0.9 mm 2 mps 579 mmHg 74%
    18:00 +14°C° 0.9 mm 2 mps 578 mmHg 80%
    19:00 +13°C° 0.9 mm 2 mps 578 mmHg 87%
    20:00 +12°C° 0.5 mm 2 mps 578 mmHg 90%
    21:00 +11°C° 0.5 mm 1 mps 577 mmHg 92%
    22:00 +10°C° 0.5 mm 1 mps 577 mmHg 95%
    23:00 +9°C° 0.2 mm 1 mps 577 mmHg 95%

    26 July, Thursday

    Time Temperature Precipitation Wind Pressure Humidity
    00:00 +9°C° 0.2 mm 1 mps 577 mmHg 95%
    01:00 +8°C° 0.2 mm 1 mps 577 mmHg 95%
    02:00 +8°C° 0 mm 1 mps 576 mmHg 94%
    03:00 +7°C° 0 mm 1 mps 576 mmHg 93%
    04:00 +7°C° 0 mm 1 mps 576 mmHg 93%
    05:00 +8°C° 0 mm 1 mps 577 mmHg 88%
    06:00 +9°C° 0 mm 1 mps 577 mmHg 84%
    07:00 +11°C° 0 mm 1 mps 578 mmHg 79%
    08:00 +13°C° 0 mm 1 mps 579 mmHg 70%
    09:00 +14°C° 0 mm 1 mps 580 mmHg 61%
    10:00 +16°C° 0 mm 1 mps 581 mmHg 52%
    11:00 +18°C° 0.1 mm 1 mps 581 mmHg 50%
    12:00 +18°C° 0.1 mm 2 mps 581 mmHg 47%
    13:00 +18°C° 0.1 mm 2 mps 581 mmHg 45%
    14:00 +18°C° 0.2 mm 2 mps 581 mmHg 47%
    15:00 +18°C° 0.2 mm 2 mps 581 mmHg 49%
    16:00 +18°C° 0.2 mm 2 mps 581 mmHg 52%
    17:00 +17°C° 0.4 mm 2 mps 580 mmHg 60%
    18:00 +15°C° 0.4 mm 2 mps 580 mmHg 68%
    19:00 +14°C° 0.4 mm 2 mps 579 mmHg 77%
    20:00 +12°C° 0.2 mm 1 mps 579 mmHg 83%
    21:00 +11°C° 0.2 mm 1 mps 578 mmHg 88%
    22:00 +9°C° 0.2 mm 1 mps 577 mmHg 94%
    23:00 +9°C° 0.1 mm 1 mps 577 mmHg 94%
    Show more